Tracking 25710 objects as of 5-Jul-2022
HD Live streaming from Space Station
objects crossing your sky now

STARLINK-3801

Track STARLINK-3801 now!
10-day predictions
STARLINK-3801 is classified as:


NORAD ID: 52356
Int'l Code: 2022-045AB
Perigee: 466.6 km
Apogee: 468.6 km
Inclination: 53.2 °
Period: 93.8 minutes
Semi major axis: 6838 km
RCS: Unknown
Launch date: April 29, 2022
Source: United States (US)
Launch site: AIR FORCE EASTERN TEST RANGE (AFETR)
aabbcc
Your satellite tracking list
Your tracking list is empty




NASA's NSSDC Master Catalog

Two Line Element Set (TLE):
1 52356U 22045AB  22185.91667824 -.00716166  00000-0 -22399-1 0  9990
2 52356  53.2176 113.0433 0001470  60.6442 136.1521 15.35158921  1309
Source of the keplerian elements: AFSPC